EW1011 Weather Reports


Display with metric or nautical units.
time (UTC)temp
F
wind
direction
speed
MPH
gust
MPH
rain 1hr
in
rain 24hr
in
rain mn
in
humidity
%
barometer
mb
20260510133001 66 227 0.0 1.0 0.00 0.00 0.00 72 1011.6
20260510131604 65 227 0.0 0.0 0.00 0.00 0.00 76 1011.9
20260510130054 64 227 0.0 0.0 0.00 0.00 0.00 79 1011.9
20260510124559 62 227 0.0 1.0 0.00 0.00 0.00 83 1012.1
20260510123046 60 227 0.0 0.0 0.00 0.00 0.00 84 1012.2
20260510121542 59 227 0.0 0.0 0.00 0.00 0.00 88 1012.0
20260510120039 57 227 0.0 0.0 0.00 0.00 0.00 90 1011.9
20260510114537 56 227 0.0 0.0 0.00 0.00 0.00 93 1011.8
20260510113033 54 227 0.0 0.0 0.00 0.00 0.00 93 1011.4
20260510111538 53 227 0.0 0.0 0.00 0.00 0.00 93 1011.4
20260510110032 52 227 0.0 0.0 0.00 0.00 0.00 94 1011.2
20260510104530 51 227 0.0 0.0 0.00 0.00 0.00 93 1010.8
20260510103030 50 227 0.0 0.0 0.00 0.00 0.00 93 1010.4
20260510101531 50 227 0.0 0.0 0.00 0.00 0.00 93 1010.4
20260510100028 50 227 0.0 0.0 0.00 0.00 0.00 93 1010.4
20260510094541 50 227 0.0 0.0 0.00 0.00 0.00 93 1010.4
20260510093027 51 227 0.0 0.0 0.00 0.00 0.00 93 1010.4
20260510091533 51 227 0.0 0.0 0.00 0.00 0.00 93 1010.2
20260510090027 51 227 0.0 0.0 0.00 0.00 0.00 93 1010.0
20260510084524 51 227 0.0 0.0 0.00 0.00 0.00 93 1009.9
20260510083039 51 227 0.0 0.0 0.00 0.00 0.00 93 1009.8
20260510081523 51 227 0.0 0.0 0.00 0.00 0.00 92 1009.6
20260510080026 51 227 0.0 0.0 0.00 0.00 0.00 93 1009.3
20260510074520 51 227 0.0 0.0 0.00 0.00 0.00 92 1009.2
20260510073021 51 227 0.0 0.0 0.00 0.00 0.00 92 1009.0
20260510071520 52 227 0.0 0.0 0.00 0.00 0.00 92 1009.2
20260510070016 52 227 0.0 0.0 0.00 0.00 0.00 92 1008.8
20260510064515 53 227 0.0 0.0 0.00 0.00 0.00 92 1008.8
20260510063016 53 227 0.0 0.0 0.00 0.00 0.00 92 1008.8
20260510061511 53 227 0.0 0.0 0.00 0.00 0.00 91 1008.8
20260510060016 53 227 0.0 0.0 0.00 0.00 0.00 91 1008.8
20260510054510 54 227 0.0 0.0 0.00 0.00 0.00 91 1009.0
20260510053007 54 227 0.0 0.0 0.00 0.00 0.00 91 1008.8
20260510051506 55 227 0.0 0.0 0.00 0.00 0.00 91 1008.9
20260510050007 55 227 0.0 0.0 0.00 0.00 0.00 91 1009.1
20260510044504 55 227 0.0 0.0 0.00 0.00 0.00 90 1009.2
20260510043002 55 227 0.0 0.0 0.00 0.00 0.00 90 1009.2
20260510041501 55 227 0.0 0.0 0.00 0.00 0.00 90 1009.0
20260510040059 56 227 0.0 0.0 0.00 0.00 0.00 89 1008.9
20260510034557 56 227 0.0 0.0 0.00 0.00 0.00 89 1008.9
20260510033108 57 227 0.0 0.0 0.00 0.00 0.00 88 1008.9
20260510031555 57 227 0.0 0.0 0.00 0.00 0.00 87 1008.8
20260510024555 58 227 0.0 0.0 0.00 0.00 0.00 86 1008.8
20260510023054 58 227 0.0 0.0 0.00 0.00 0.00 86 1008.8
20260510021559 59 227 0.0 0.0 0.00 0.00 0.00 85 1008.8
20260510020051 59 227 0.0 0.0 0.00 0.00 0.00 84 1008.8
20260510014553 60 227 0.0 0.0 0.00 0.00 0.00 84 1008.5
20260510013051 60 227 0.0 0.0 0.00 0.00 0.00 83 1008.4
20260510011551 61 227 0.0 0.0 0.00 0.00 0.00 82 1008.3
20260510010049 61 227 0.0 0.0 0.00 0.00 0.00 80 1008.3
20260510004551 61 227 0.0 0.0 0.00 0.00 0.00 78 1008.3
20260510003049 63 227 0.0 0.0 0.00 0.00 0.00 76 1007.9
20260510001548 64 227 0.0 0.0 0.00 0.00 0.00 74 1007.9
20260510000047 64 227 0.0 0.0 0.00 0.00 0.00 73 1007.8
20260509234549 65 227 0.0 0.0 0.00 0.00 0.00 72 1007.6
20260509233046 66 227 0.0 0.0 0.00 0.00 0.00 68 1007.3
20260509231547 68 227 0.0 0.0 0.00 0.00 0.00 66 1007.2
20260509230049 68 227 0.0 1.0 0.00 0.00 0.00 65 1007.2
20260509224545 68 138 0.0 1.0 0.00 0.00 0.00 64 1007.2
20260509223045 68 138 0.0 1.0 0.00 0.00 0.00 65 1007.3
20260509221544 68 138 0.0 2.0 0.00 0.00 0.00 64 1007.3
20260509220043 69 130 0.0 2.0 0.00 0.00 0.00 62 1007.3
20260509214543 70 114 0.0 2.0 0.00 0.00 0.00 63 1007.4
20260509213050 70 114 0.0 2.0 0.00 0.00 0.00 63 1007.4
20260509211542 70 114 0.0 2.0 0.00 0.00 0.00 64 1007.3
20260509210058 70 114 0.0 1.0 0.00 0.00 0.00 64 1007.2
20260509204543 69 114 0.0 2.0 0.00 0.00 0.00 65 1007.1
20260509203043 69 114 0.0 1.0 0.00 0.00 0.00 66 1007.2
20260509201540 69 114 0.0 2.0 0.00 0.00 0.00 62 1007.5
20260509200039 69 114 0.0 1.0 0.00 0.00 0.00 66 1007.8
20260509194538 68 114 0.0 1.0 0.00 0.00 0.00 69 1007.9
20260509193043 68 114 0.0 1.0 0.00 0.00 0.00 69 1008.2
20260509191540 67 114 0.0 5.0 0.00 0.00 0.00 72 1008.2
20260509190037 64 116 0.0 1.0 0.00 0.00 0.00 80 1008.4
20260509184546 65 116 0.0 0.0 0.00 0.00 0.00 74 1008.5
20260509183033 66 116 0.0 0.0 0.00 0.00 0.00 70 1008.7
20260509181542 65 116 0.0 0.0 0.00 0.00 0.00 71 1008.9
20260509180030 65 116 0.0 0.0 0.00 0.00 0.00 69 1009.1
20260509174530 65 116 0.0 0.0 0.00 0.00 0.00 70 1009.0
20260509173029 64 116 0.0 0.0 0.00 0.00 0.00 71 1009.2
20260509171528 64 116 0.0 0.0 0.00 0.00 0.00 70 1009.2
20260509170036 64 116 0.0 1.0 0.00 0.00 0.00 69 1009.2
20260509164535 65 116 0.0 1.0 0.00 0.00 0.00 67 1009.2
20260509163030 66 116 0.0 1.0 0.00 0.00 0.00 65 1009.2
20260509161533 68 116 0.0 1.0 0.00 0.00 0.00 59 1009.3
20260509160031 68 116 0.0 3.0 0.00 0.00 0.00 57 1009.4
20260509154525 70 112 0.0 2.0 0.00 0.00 0.00 57 1009.3
20260509153027 69 112 0.0 3.0 0.00 0.00 0.00 59 1009.6
20260509151520 68 200 0.0 2.0 0.00 0.00 0.00 59 1009.9
20260509150016 66 204 0.0 0.0 0.00 0.00 0.00 62 1010.3
20260509144514 64 204 0.0 1.0 0.00 0.01 0.00 63 1010.4
20260509143012 64 204 0.0 2.0 0.00 0.01 0.00 64 1010.4
20260509141513 65 206 0.0 1.0 0.00 0.01 0.00 66 1010.4
20260509140010 63 206 0.0 4.0 0.00 0.01 0.00 65 1010.4